[[{"header":{"parameterUnit":"m.s-1","parameterCategory":1,"la1":30.2991,"la2":30.254,"lo1":-89.0895,"lo2":-89.0444,"dy":0.0017,"dx":0.0017,"nx":28,"ny":28,"refTime":"2024-06-07T09:00:00:Z","depth":0,"parameterNumber":2,"parameterNumberName":"U-component_of_WINDS"},"data":[0,0,0,0,0,0,0,0,0,0,0,0,0,0,0,0,0,0,0,0,0,0,0,0,0,0,0,0,0,0,0,0,0,0,0,0,0,0,0,0,0,0,0,0,0,0,0,0,0,0,0,0,0,0,0,0,0,0,1.5796,1.5798,0,1.5953,1.5955,1.5956,1.5993,1.5992,1.5991,1.599,1.6156,1.6161,1.6166,0,0,0,0,0,0,0,0,0,0,0,0,0,1.5533,1.5537,1.5796,1.5798,1.58,1.5952,1.5955,1.5957,1.5993,1.5992,1.5991,1.5989,1.6154,1.616,1.6167,0,0,0,0,0,0,0,0,0,0,0,0,0,1.5664,1.5539,1.5795,1.5836,1.5841,1.5952,1.5955,1.5957,1.5994,1.5992,1.599,1.5989,1.6152,1.616,1.6168,1.625,0,0,1.6192,1.6196,0,0,0,0,0,0,0,0,1.5657,1.5674,1.5828,1.5834,1.584,1.5952,1.5923,1.6056,1.5994,1.5936,1.599,1.5988,1.6089,1.6103,1.6136,1.6258,1.6265,1.6193,1.6198,1.6202,1.6204,0,0,0,0,0,0,0,1.5647,1.5667,1.5858,1.5831,1.5837,1.5848,1.5865,1.5948,1.602,1.5941,1.5944,1.5962,1.6092,1.6128,1.614,1.6268,1.6193,1.62,1.6205,1.6208,1.6466,1.6468,0,0,0,0,0,0,1.5631,1.5659,1.5853,1.5863,1.5742,1.5854,1.5873,1.5917,1.6019,1.6033,1.5963,1.5963,1.6115,1.613,1.6146,1.6249,1.6202,1.6209,1.6214,1.6464,1.6466,1.6469,0,0,0,0,0,0,1.5625,1.5647,1.5847,1.5762,1.5788,1.586,1.591,1.5921,1.5957,1.6036,1.6049,1.5986,1.6114,1.6134,1.6224,1.6255,1.6213,1.622,1.6462,1.6465,1.6468,1.6456,0,0,0,0,0,0,1.5617,1.5645,1.5676,1.5762,1.5792,1.5921,1.5912,1.5926,1.597,1.5971,1.6061,1.6074,1.6114,1.6211,1.6232,1.6266,1.6227,1.6459,1.6463,1.6467,1.6454,1.6459,1.6462,0,0,0,0,0,1.5607,1.5668,1.5677,1.5701,1.5832,1.5922,1.594,1.5983,1.5972,1.6005,1.6056,1.6071,1.6249,1.622,1.6244,1.6281,1.6457,1.6462,1.6466,1.6453,1.6458,1.6462,0,0,0,0,0,0,1.5585,1.568,1.5692,1.5781,1.5843,1.5928,1.597,1.5988,1.6055,1.6054,1.6107,1.6127,1.6213,1.6256,1.6222,1.6366,1.6353,1.6362,1.6334,1.634,1.6344,1.6332,1.6233,0,0,0,0,0,1.559,1.5654,1.5734,1.5806,1.5836,1.5898,1.5938,1.5967,1.6034,1.606,1.6118,1.6183,1.6254,1.63,1.6369,1.6461,1.6481,1.6498,1.6502,1.6505,1.6512,1.6564,1.6572,1.6483,1.6483,1.6483,0,0,1.5603,1.5662,1.5699,1.5803,1.5854,1.592,1.592,1.5989,1.6039,1.6072,1.6159,1.6203,1.628,1.6371,1.6414,1.641,1.6541,1.651,1.6512,1.6518,1.6569,1.6578,1.6585,1.6486,1.6486,1.6485,0,0,1.5658,1.5709,1.5774,1.5825,1.5902,1.5943,1.5959,1.6041,1.6071,1.6159,1.6185,1.6246,1.6367,1.642,1.6463,1.6539,1.6556,1.656,1.6581,1.6631,1.6638,1.6645,1.6672,1.6681,1.6567,1.6567,1.6567,0,1.5664,1.5762,1.5806,1.5874,1.5919,1.595,1.6017,1.6065,1.6162,1.6193,1.6186,1.6337,1.6392,1.6495,1.6513,1.6547,1.6568,1.655,1.6633,1.664,1.6647,1.6673,1.6683,1.6567,1.6567,1.6567,1.6567,0,1.5766,1.5834,1.5878,1.5968,1.6018,1.6085,1.614,1.6186,1.621,1.6252,1.6341,1.6407,1.649,1.6517,1.6542,1.6625,1.6619,1.6622,1.661,1.6655,1.668,1.6691,1.6567,1.6567,1.6567,1.6567,0,0,1.5812,1.5925,1.594,1.5981,1.6068,1.6123,1.6192,1.6272,1.631,1.6376,1.6436,1.6536,1.654,1.6588,1.662,1.6663,1.6719,1.6661,1.6664,1.667,1.6814,1.6811,1.6822,1.673,1.6733,1.6734,1.6808,0,1.5878,1.6,1.6042,1.6144,1.6208,1.6238,1.6299,1.636,1.6401,1.6462,1.6508,1.6578,1.6577,1.6607,1.6652,1.6702,1.6749,1.6698,1.6788,1.679,1.6767,1.6835,1.6832,1.6898,1.6818,1.682,1.6821,0,1.5971,1.6036,1.6144,1.6223,1.6252,1.6305,1.6381,1.6439,1.6509,1.6536,1.659,1.6618,1.6693,1.6676,1.678,1.6745,1.6784,1.6815,1.6818,1.6828,1.6808,1.6847,1.6921,1.693,1.6837,1.6836,1.6835,0,1.5993,1.6108,1.6188,1.6222,1.6317,1.6353,1.6395,1.6463,1.6508,1.6575,1.6605,1.6681,1.6722,1.6781,1.6829,1.6812,1.6929,1.6916,1.6954,1.6953,1.6977,1.6975,1.7058,1.7003,1.7003,1.7002,1.7002,0,1.6062,1.6127,1.6199,1.6248,1.6322,1.6369,1.6442,1.6485,1.6546,1.6605,1.6636,1.6691,1.6751,1.6814,1.6852,1.6933,1.6952,1.6976,1.6985,1.6973,1.697,1.6999,1.6996,1.7005,1.7005,1.7004,1.7004,0,1.6099,1.615,1.6239,1.632,1.6342,1.6393,1.6464,1.6513,1.6555,1.6629,1.665,1.6716,1.6792,1.6845,1.6944,1.6969,1.7056,1.7065,1.7032,1.7036,1.7071,1.7067,1.7175,1.7192,1.7126,1.7126,1.7127,0,1.614,1.6191,1.6277,1.6318,1.6359,1.6424,1.647,1.652,1.6566,1.665,1.6689,1.6767,1.6831,1.6951,1.7009,1.7085,1.7096,1.7129,1.7107,1.7093,1.7096,1.7092,1.7097,1.7132,1.7132,1.7133,1.7133,0,1.6207,1.6229,1.6293,1.6366,1.6419,1.648,1.654,1.6572,1.6633,1.6684,1.6761,1.6811,1.691,1.6987,1.7067,1.7112,1.7133,1.7139,1.7152,1.7139,1.7118,1.713,1.704,1.7136,1.7136,1.7136,1.7136,1.7135,1.6247,1.6293,1.6361,1.6431,1.6482,1.6538,1.6588,1.6636,1.67,1.6784,1.681,1.6889,1.6959,1.7069,1.7114,1.7178,1.7177,1.7195,1.72,1.7203,1.7203,1.7107,1.7193,1.7193,1.7193,1.7193,1.7193,0,1.6315,1.636,1.6424,1.6507,1.6563,1.6576,1.6644,1.669,1.6759,1.6822,1.6884,1.6973,1.7047,1.7111,1.7189,1.7228,1.7239,1.7246,1.7244,1.7254,1.72,1.7181,1.7236,1.7236,1.7236,1.7236,1.7235,1.7235,1.6357,1.6435,1.6466,1.657,1.6616,1.6693,1.673,1.6782,1.6832,1.6929,1.699,1.7031,1.7094,1.7176,1.7246,1.7263,1.729,1.7295,1.7314,1.7262,1.7258,1.7253,1.7235,1.73,1.73,1.7362,1.7363,1.7363]},{"header":{"parameterUnit":"m.s-1","parameterCategory":1,"la1":30.2991,"la2":30.254,"lo1":-89.0895,"lo2":-89.0444,"dy":0.0017,"dx":0.0017,"nx":28,"ny":28,"refTime":"2024-06-07T09:00:00:Z","depth":0,"parameterNumber":3,"parameterNumberName":"V-component_of_WINDS"},"data":[0,0,0,0,0,0,0,0,0,0,0,0,0,0,0,0,0,0,0,0,0,0,0,0,0,0,0,0,0,0,0,0,0,0,0,0,0,0,0,0,0,0,0,0,0,0,0,0,0,0,0,0,0,0,0,0,0,0,1.7934,1.7935,0,1.8034,1.8035,1.8036,1.7984,1.7981,1.7978,1.7976,1.8077,1.8082,1.8087,0,0,0,0,0,0,0,0,0,0,0,0,0,1.7693,1.7697,1.7934,1.7935,1.7936,1.8033,1.8035,1.8036,1.7984,1.7981,1.7978,1.7974,1.8075,1.8082,1.8088,0,0,0,0,0,0,0,0,0,0,0,0,0,1.7796,1.7699,1.7933,1.7922,1.7922,1.8033,1.8035,1.8036,1.7985,1.7981,1.7977,1.7973,1.8073,1.8081,1.8089,1.8217,0,0,1.8112,1.8116,0,0,0,0,0,0,0,0,1.779,1.7804,1.7922,1.7923,1.7923,1.7992,1.7987,1.8097,1.7986,1.7961,1.7976,1.7971,1.8052,1.8061,1.8089,1.8222,1.8226,1.8113,1.8118,1.8121,1.8123,0,0,0,0,0,0,0,1.7783,1.78,1.7973,1.7924,1.7924,1.791,1.792,1.8008,1.8028,1.7963,1.7959,1.7972,1.8051,1.8081,1.8091,1.8227,1.8113,1.812,1.8125,1.8128,1.8462,1.8466,0,0,0,0,0,0,1.7777,1.7794,1.797,1.7976,1.7845,1.7918,1.7929,1.7974,1.8027,1.8031,1.7975,1.7969,1.807,1.8082,1.8094,1.8242,1.8121,1.8128,1.8133,1.8458,1.8463,1.8468,0,0,0,0,0,0,1.7772,1.7793,1.7966,1.7884,1.7905,1.7926,1.7977,1.7978,1.8008,1.8036,1.8039,1.8002,1.8067,1.8083,1.8185,1.8245,1.8132,1.8139,1.8453,1.846,1.8465,1.8542,0,0,0,0,0,0,1.7765,1.7791,1.7842,1.7886,1.791,1.8057,1.7981,1.7983,1.8022,1.8014,1.8062,1.8066,1.8065,1.8174,1.8193,1.8253,1.8145,1.8448,1.8456,1.8463,1.8534,1.855,1.8564,0,0,0,0,0,1.7757,1.7861,1.7845,1.7866,1.7973,1.8061,1.8074,1.8071,1.8027,1.8076,1.8093,1.8065,1.8236,1.8185,1.8206,1.827,1.8444,1.8454,1.8463,1.8527,1.8547,1.8563,0,0,0,0,0,0,1.7825,1.7867,1.7849,1.7971,1.8012,1.8052,1.8114,1.8093,1.8148,1.8139,1.8133,1.8144,1.8248,1.827,1.8212,1.8392,1.8333,1.8347,1.8374,1.8393,1.8408,1.8399,1.8152,0,0,0,0,0,1.7854,1.7923,1.7955,1.806,1.8081,1.8094,1.8132,1.8126,1.8168,1.8186,1.821,1.8252,1.8314,1.8355,1.8415,1.8538,1.8544,1.8591,1.8606,1.8618,1.863,1.8689,1.8709,1.8499,1.8499,1.8498,0,0,1.7916,1.7947,1.7991,1.8074,1.8105,1.8173,1.8109,1.8186,1.8235,1.8197,1.8293,1.8312,1.8358,1.8469,1.8519,1.849,1.8689,1.863,1.864,1.8645,1.8701,1.8721,1.8738,1.8505,1.8504,1.8503,0,0,1.8061,1.8094,1.8181,1.8212,1.8259,1.8267,1.8287,1.8329,1.8339,1.8436,1.8406,1.8464,1.8574,1.8605,1.8636,1.8787,1.876,1.8807,1.8883,1.8941,1.8957,1.8972,1.902,1.9038,1.8818,1.8819,1.8819,0,1.8131,1.8233,1.8228,1.8305,1.834,1.8307,1.8393,1.8424,1.8489,1.8512,1.8479,1.861,1.864,1.8754,1.879,1.8818,1.8838,1.88,1.8956,1.897,1.8984,1.9029,1.9048,1.8823,1.8823,1.8822,1.8822,0,1.8314,1.8385,1.8449,1.8509,1.8552,1.8634,1.8638,1.8682,1.8671,1.868,1.8775,1.8808,1.887,1.8898,1.889,1.9009,1.8989,1.8956,1.8895,1.9008,1.9051,1.9069,1.883,1.8829,1.8827,1.8826,0,0,1.8507,1.8559,1.8582,1.8606,1.8654,1.8707,1.8785,1.8845,1.8879,1.8925,1.8986,1.9077,1.9044,1.9079,1.9073,1.9125,1.9234,1.9085,1.9085,1.9106,1.9361,1.9382,1.9403,1.9218,1.9222,1.9224,1.9355,0,1.865,1.8785,1.878,1.8905,1.8967,1.8935,1.9001,1.9036,1.9046,1.9099,1.911,1.9172,1.9128,1.9147,1.9197,1.921,1.9284,1.9202,1.9272,1.9274,1.9257,1.9426,1.9451,1.9573,1.9373,1.9376,1.9378,0,1.8837,1.8884,1.9015,1.9046,1.9072,1.9132,1.9183,1.9236,1.9272,1.9275,1.9311,1.9296,1.937,1.9309,1.9409,1.9353,1.9381,1.9391,1.9396,1.9399,1.933,1.9429,1.9612,1.9629,1.9405,1.9403,1.9401,0,1.8957,1.9054,1.9142,1.9165,1.9206,1.9248,1.9267,1.9299,1.9334,1.9378,1.9399,1.9453,1.9481,1.9522,1.9519,1.9476,1.9619,1.9559,1.962,1.962,1.9649,1.9646,1.9834,1.9675,1.9675,1.9674,1.9674,0,1.9115,1.9195,1.9196,1.925,1.9336,1.9329,1.9414,1.9429,1.9457,1.9511,1.9488,1.9539,1.9535,1.9586,1.9585,1.9664,1.9679,1.9681,1.9678,1.968,1.9679,1.9696,1.9686,1.9679,1.9678,1.9677,1.9676,0,1.9263,1.9268,1.9361,1.9391,1.9399,1.9461,1.9486,1.9535,1.9542,1.961,1.9626,1.9636,1.9694,1.9696,1.9764,1.9763,1.9858,1.9849,1.9845,1.9842,1.99,1.9893,2.0102,2.0126,1.9956,1.9957,1.9959,0,1.9362,1.9422,1.9456,1.949,1.9511,1.9567,1.96,1.9594,1.963,1.9672,1.9716,1.9771,1.9815,1.9908,1.9921,1.9971,1.996,2.0029,1.9967,1.9964,1.9954,1.9949,1.9952,2.004,2.0042,2.0044,2.0045,0,1.9535,1.9533,1.9582,1.963,1.967,1.9709,1.9744,1.9773,1.977,1.9811,1.9869,1.9902,1.9969,2.0022,2.007,2.0087,2.0064,2.0065,2.008,2.0081,2.0074,2.0072,1.9873,2.0059,2.0058,2.0057,2.0056,2.0056,1.9658,1.9707,1.9737,1.9791,1.9816,1.9848,1.9894,1.9905,1.9953,2.0005,1.9999,2.0062,2.0092,2.0153,2.0174,2.0221,2.0197,2.0221,2.0226,2.0231,2.0235,2.0069,2.023,2.023,2.023,2.0229,2.0229,0,1.9825,1.9841,1.9891,1.9939,1.998,1.9955,1.9991,2.0026,2.0082,2.0112,2.0154,2.0217,2.0268,2.0283,2.0331,2.0365,2.0355,2.0378,2.0373,2.0376,2.0257,2.0236,2.0384,2.0384,2.0384,2.0384,2.0384,2.0384,1.9916,1.9995,1.9996,2.0085,2.0101,2.0162,2.0183,2.0211,2.0234,2.0306,2.0347,2.0356,2.0378,2.0427,2.047,2.0473,2.049,2.0515,2.0513,2.0401,2.0385,2.037,2.035,2.052,2.052,2.0628,2.0629,2.0629]}]]